EW4609 Weather Reports


time (UTC)temp
C
wind
direction
speed
KPH
gust
KPH
rain 1hr
cm
rain 24hr
cm
rain mn
cm
humidity
%
barometer
mb
20260906230051 35 154 0.0 0.0 0.00 0.00 0.00 39 1009.9
20260906224536 35 154 0.0 0.0 0.00 0.00 0.00 39 1009.9
20260906223029 36 155 0.0 0.0 0.00 0.00 0.00 39 1010.1
20260906221530 36 155 0.0 0.0 0.00 0.00 0.00 40 1010.0
20260906220023 35 155 0.0 0.0 0.00 0.00 0.00 40 1010.1
20260906214520 36 154 0.0 0.0 0.00 0.00 0.00 39 1010.2
20260906213012 36 154 0.0 0.0 0.00 0.00 0.00 40 1010.5
20260906211509 36 155 0.0 0.0 0.00 0.00 0.00 40 1010.7
20260906210003 35 153 0.0 0.0 0.00 0.00 0.00 41 1010.9
20260906204545 35 153 0.0 0.0 0.00 0.00 0.00 42 1011.1
20260906203039 36 155 0.0 0.0 0.00 0.00 0.00 41 1011.2
20260906201521 35 155 0.0 0.0 0.00 0.00 0.00 41 1011.4
20260906200032 35 155 0.0 0.0 0.00 0.00 0.00 42 1011.5
20260906194511 35 155 0.0 0.0 0.00 0.00 0.00 41 1011.8
20260906193007 35 155 0.0 0.0 0.00 0.00 0.00 42 1011.9
20260906191503 35 155 0.0 0.0 0.00 0.00 0.00 42 1012.1
20260906190058 35 157 0.0 0.0 0.00 0.00 0.00 42 1012.2
20260906184606 34 157 0.0 0.0 0.00 0.00 0.00 44 1012.3
20260906183059 33 157 0.0 0.0 0.00 0.00 0.00 44 1012.5
20260906181537 33 157 0.0 0.0 0.00 0.00 0.00 44 1012.7
20260906180036 33 157 0.0 0.0 0.00 0.00 0.00 44 1013.0
20260906174505 33 157 0.0 0.0 0.00 0.00 0.00 44 1013.2
20260906173006 33 157 0.0 0.0 0.00 0.00 0.00 43 1013.5
20260906171606 32 157 0.0 0.0 0.00 0.00 0.00 42 1013.7
20260906170056 32 157 0.0 0.0 0.00 0.00 0.00 41 1013.9
20260906164555 32 157 0.0 0.0 0.00 0.00 0.00 40 1014.0
20260906163050 32 157 0.0 0.0 0.00 0.00 0.00 36 1014.1
20260906161539 31 157 0.0 0.0 0.00 0.00 0.00 32 1014.1
20260906160047 31 157 0.0 0.0 0.00 0.00 0.00 25 1014.2
20260906154520 30 157 0.0 0.0 0.00 0.00 0.00 18 1014.1
20260906153014 30 157 0.0 0.0 0.00 0.00 0.00 13 1014.1
20260906151509 29 157 0.0 0.0 0.00 0.00 0.00 6 1013.9
20260906150019 28 167 0.0 0.0 0.00 0.00 0.00 3 1013.8
20260906144502 28 167 0.0 0.0 0.00 0.00 0.00 1 1013.7
20260906143101 27 167 0.0 0.0 0.00 0.00 0.00 1 1013.8
20260906141601 27 167 0.0 0.0 0.00 0.00 0.00 1 1013.7
20260906140050 27 167 0.0 0.0 0.00 0.00 0.00 1 1013.8
20260906134544 26 167 0.0 0.0 0.00 0.00 0.00 1 1013.7
20260906133023 26 167 0.0 0.0 0.00 0.00 0.00 1 1013.7
20260906131526 25 167 0.0 0.0 0.00 0.00 0.00 1 1013.7
20260906130057 25 167 0.0 0.0 0.00 0.00 0.00 1 1013.7
20260906124552 25 167 0.0 0.0 0.00 0.00 0.00 1 1013.4
20260906123034 25 167 0.0 0.0 0.00 0.00 0.00 1 1013.4
20260906121529 25 167 0.0 0.0 0.00 0.00 0.00 1 1013.2
20260906120026 25 167 0.0 0.0 0.00 0.00 0.00 1 1013.1
20260906114534 25 167 0.0 0.0 0.00 0.00 0.00 1 1012.9
20260906113016 25 167 0.0 0.0 0.00 0.00 0.00 1 1012.9
20260906111513 25 167 0.0 0.0 0.00 0.00 0.00 1 1012.7
20260906110013 25 167 0.0 0.0 0.00 0.00 0.00 1 1012.7
20260906104513 25 167 0.0 0.0 0.00 0.00 0.00 1 1012.7
20260906103049 25 167 0.0 0.0 0.00 0.00 0.00 1 1012.7
20260906101545 26 167 0.0 0.0 0.00 0.00 0.00 1 1012.4
20260906100044 26 167 0.0 0.0 0.00 0.00 0.00 1 1012.3
20260906094602 26 167 0.0 0.0 0.00 0.00 0.00 1 1012.1
20260906093037 26 167 0.0 0.0 0.00 0.00 0.00 1 1011.9
20260906091530 26 167 0.0 0.0 0.00 0.00 0.00 1 1011.9
20260906090024 26 167 0.0 0.0 0.00 0.00 0.00 1 1011.9
20260906084517 27 167 0.0 0.0 0.00 0.00 0.00 1 1011.9
20260906083057 27 167 0.0 0.0 0.00 0.00 0.00 2 1011.8
20260906081555 27 167 0.0 0.0 0.00 0.00 0.00 4 1011.8
20260906080046 27 167 0.0 0.0 0.00 0.00 0.00 4 1011.9
20260906074534 27 167 0.0 0.0 0.00 0.00 0.00 5 1012.0
20260906073034 27 167 0.0 0.0 0.00 0.00 0.00 5 1012.1
20260906071529 27 167 0.0 0.0 0.00 0.00 0.00 6 1011.9
20260906070026 27 167 0.0 0.0 0.00 0.00 0.00 9 1012.2
20260906064525 27 167 0.0 0.0 0.00 0.00 0.00 10 1012.1
20260906063031 28 167 0.0 0.0 0.00 0.00 0.00 12 1012.1
20260906061533 28 167 0.0 0.0 0.00 0.00 0.00 16 1012.0
20260906060008 28 167 0.0 0.0 0.00 0.00 0.00 20 1012.2
20260906054506 28 167 0.0 0.0 0.00 0.00 0.00 26 1012.2
20260906053003 28 167 0.0 0.0 0.00 0.00 0.00 31 1012.2
20260906051559 29 167 0.0 0.0 0.00 0.00 0.00 35 1012.1
20260906050114 30 167 0.0 0.0 0.00 0.00 0.00 38 1012.2
20260906044554 30 167 0.0 0.0 0.00 0.00 0.00 40 1012.2
20260906043047 30 167 0.0 0.0 0.00 0.00 0.00 42 1012.1
20260906041546 30 167 0.0 0.0 0.00 0.00 0.00 43 1011.8
20260906040024 30 167 0.0 0.0 0.00 0.00 0.00 45 1011.9
20260906034515 30 167 0.0 0.0 0.00 0.00 0.00 46 1012.0
20260906033059 30 167 0.0 0.0 0.00 0.00 0.00 46 1012.0
20260906031601 31 167 0.0 0.0 0.00 0.00 0.00 47 1012.0
20260906030052 31 167 0.0 0.0 0.00 0.00 0.00 48 1012.1
20260906024545 31 167 0.0 0.0 0.00 0.00 0.00 48 1011.9
20260906023048 31 167 0.0 0.0 0.00 0.00 0.00 48 1011.7
20260906021537 31 167 0.0 0.0 0.00 0.00 0.00 49 1011.4
20260906020048 32 167 0.0 0.0 0.00 0.00 0.00 49 1011.1
20260906014533 32 167 0.0 0.0 0.00 0.00 0.00 49 1010.9
20260906013005 32 167 0.0 0.0 0.00 0.00 0.00 49 1010.6
20260906011504 33 193 0.0 0.0 0.00 0.00 0.00 47 1010.3
20260906010045 34 198 0.0 0.0 0.00 0.00 0.00 43 1010.1
20260906004540 35 199 0.0 0.0 0.00 0.00 0.00 41 1010.0
20260906003038 35 199 0.0 0.0 0.00 0.00 0.00 40 1010.0
20260906001533 35 199 0.0 0.0 0.00 0.00 0.00 40 1010.0
20260906000027 35 199 0.0 0.0 0.00 0.00 0.00 39 1009.9
20260905234523 36 200 0.0 0.0 0.00 0.00 0.00 38 1009.7
20260905233018 36 199 0.0 0.0 0.00 0.00 0.00 38 1009.7
20260905231514 35 200 0.0 0.0 0.00 0.00 0.00 38 1009.8